Location: Garos
(43.5000°N, 0.4667°W)
Time: 16:59:46
(UTC+00:00)

Cosmos 1892 - Pass Details

Date: 03 February 2023
Orbit: 485 x 506 km, 82.5° (Epoch: 31 March)

Event Time Altitude Azimuth Distance (km) Brightness Sun altitude
Rises 17:58:23 0° 179° (S) 2,564 6.4 -8.2°
Reaches altitude 10° 18:00:28 10° 176° (S) 1,691 5.5 -8.5°
Maximum altitude 18:04:08 62° 96° (E) 568 2.6 -9.2°
Drops below altitude 10° 18:07:52 10° 15° (NNE) 1,724 5.1 -9.8°
Sets 18:10:01 0° 12° (NNE) 2,619 6.0 -10.2°
